{"data":{"norad_id":54754,"epoch":"2026-09-20T00:32:13.473024Z","epoch_age_seconds":59461,"freshness":"FRESH","line1":"1 54754U 22173A   26263.02237816  .00000005  00000+0  48786-5 0  9990","line2":"2 54754  77.6074 267.2878 0000198 191.1172 168.9975 14.00171898192420","mean_motion":14.00171898,"eccentricity":1.98e-5,"inclination_deg":77.6074,"raan_deg":267.2878,"arg_perigee_deg":191.1172,"mean_anomaly_deg":168.9975,"bstar":4.8786e-6,"rev_number":19242,"period_min":102.84451516681,"perigee_km":893.05597645125,"apogee_km":893.34392139443,"semimajor_km":7271.3369489228,"source":"CELESTRAK","updated_at":"2026-09-20T09:00:33.978206Z"}}